Tracking 18852 objects as of 24-Nov-2017
HD Live streaming from Space Station
objects crossing your sky now

ASTRO H DEB

Track ASTRO H DEB now!
10-day predictions


NORAD ID: 41441
Int'l Code: 2016-012K
Perigee: 496.3 km
Apogee: 520.2 km
Inclination: 31.0 °
Period: 94.6 minutes
Semi major axis: 6879 km
RCS: Unknown
Launch date: February 17, 2016
Source: Japan (JPN)
Launch site: TANEGASHIMA SPACE CENTER (TNSTA)

Note: This is SATELLITE DEBRIS
aabbcc
Your satellite tracking list
Your tracking list is empty




NASA's NSSDC Master Catalog

Two Line Element Set (TLE):
1 41441U 16012K   17327.75526311 +.00017957 +00000-0 +76628-3 0  9995
2 41441 030.9522 093.1891 0017334 102.5742 257.6838 15.21567266092121
Source of the keplerian elements: AFSPC